Location: Fours
(44.3167°N, 6.7000°E)
Time: 23:59:31
(UTC+00:00)

Cosmos 2218 Rocket - Pass Details

Date: 29 May 2022
Orbit: 956 x 1005 km, 82.9° (Epoch: 01 July)

Event Time Altitude Azimuth Distance (km) Brightness Sun altitude
Rises 03:02:49 0° 347° (NNW) 3,676 7.4 -8.2°
Reaches altitude 10° 03:05:23 10° 342° (NNW) 2,732 6.7 -7.9°
Maximum altitude 03:11:22 50° 269° (W) 1,240 4.3 -7.0°
Drops below altitude 10° 03:17:24 10° 196° (SSW) 2,747 5.9 -6.2°
Sets 03:20:00 0° 191° (SSW) 3,698 6.6 -5.8°
